When you browse on this site, cookies collect data to enhance your experience and personalize the content and advertising you see.
Visit our Privacy Policy to learn more. By continuing to use the site, you agree to this use of cookies and data.
  • In Lithuania
  • List of Countries
  • For 7 days
  • Water Temperature
  • Satellite Maps
  • Weather Map
  • Weather Widgets
  • user-avatar
    Login

    Hourly Weather Woodstock

    Today, 11 December, Tuesday

    Time Temperature Precipitation Wind Pressure Humidity
    00:00 -6°C° 0 mm 5 mps 737 mmHg 79%
    01:00 -6°C° 0 mm 5 mps 737 mmHg 81%
    02:00 -6°C° 0 mm 5 mps 737 mmHg 83%
    03:00 -6°C° 0 mm 5 mps 737 mmHg 85%
    04:00 -5°C° 0 mm 4 mps 737 mmHg 86%
    05:00 -5°C° 0 mm 4 mps 736 mmHg 87%
    06:00 -7°C° 0 mm 4 mps 736 mmHg 89%
    07:00 -5°C° 0 mm 4 mps 736 mmHg 86%
    08:00 -5°C° 0 mm 4 mps 736 mmHg 84%
    09:00 -5°C° 0 mm 4 mps 736 mmHg 81%
    10:00 -4°C° 0 mm 4 mps 736 mmHg 76%
    11:00 -2°C° 0 mm 3 mps 736 mmHg 71%
    12:00 -1°C° 0 mm 3 mps 736 mmHg 66%
    13:00 -1°C° 0 mm 2 mps 736 mmHg 66%
    14:00 -1°C° 0 mm 2 mps 736 mmHg 66%
    15:00 +2°C° 0 mm 1 mps 735 mmHg 66%
    16:00 +1°C° 0 mm 1 mps 735 mmHg 70%
    17:00 0°C° 0 mm 1 mps 735 mmHg 73%
    18:00 0°C° 0 mm 1 mps 735 mmHg 77%
    19:00 0°C° 0 mm 1 mps 735 mmHg 78%
    20:00 -3°C° 0 mm 2 mps 735 mmHg 79%
    21:00 -3°C° 0 mm 2 mps 735 mmHg 80%
    22:00 -2°C° 0 mm 2 mps 734 mmHg 81%
    23:00 -2°C° 0 mm 3 mps 733 mmHg 82%

    Tomorrow, 12 December, Wednesday

    Time Temperature Precipitation Wind Pressure Humidity
    00:00 -2°C° 0 mm 3 mps 733 mmHg 83%
    01:00 -2°C° 0 mm 3 mps 732 mmHg 83%
    02:00 -3°C° 0 mm 4 mps 731 mmHg 83%
    03:00 -2°C° 0 mm 4 mps 731 mmHg 84%
    04:00 -2°C° 0.4 mm 4 mps 730 mmHg 86%
    05:00 -2°C° 0.4 mm 4 mps 729 mmHg 89%
    06:00 -2°C° 0.4 mm 4 mps 729 mmHg 92%
    07:00 -2°C° 0.4 mm 4 mps 729 mmHg 92%
    08:00 -1°C° 0.4 mm 5 mps 729 mmHg 93%
    09:00 -1°C° 0.4 mm 5 mps 728 mmHg 93%
    10:00 -1°C° 0.1 mm 5 mps 729 mmHg 90%
    11:00 -3°C° 0.1 mm 6 mps 729 mmHg 86%
    12:00 -3°C° 0.1 mm 6 mps 729 mmHg 83%
    13:00 -3°C° 0 mm 6 mps 729 mmHg 82%
    14:00 -3°C° 0 mm 6 mps 729 mmHg 81%
    15:00 -2°C° 0 mm 5 mps 730 mmHg 80%
    16:00 -2°C° 0 mm 5 mps 731 mmHg 82%
    17:00 -3°C° 0 mm 4 mps 731 mmHg 84%
    18:00 -4°C° 0 mm 3 mps 732 mmHg 87%
    19:00 -4°C° 0 mm 3 mps 732 mmHg 87%
    20:00 -4°C° 0 mm 3 mps 733 mmHg 87%
    21:00 -3°C° 0 mm 2 mps 733 mmHg 87%
    22:00 -3°C° 0 mm 2 mps 733 mmHg 86%
    23:00 -1°C° 0 mm 1 mps 733 mmHg 86%

    Day after tomorrow, 13 December, Thursday

    Time Temperature Precipitation Wind Pressure Humidity
    00:00 -1°C° 0 mm 1 mps 734 mmHg 85%
    01:00 -1°C° 0 mm 1 mps 734 mmHg 86%
    02:00 -1°C° 0 mm 1 mps 734 mmHg 86%
    03:00 -1°C° 0 mm 1 mps 735 mmHg 87%
    04:00 -3°C° 0 mm 2 mps 735 mmHg 87%
    05:00 -3°C° 0 mm 2 mps 735 mmHg 88%
    06:00 -3°C° 0 mm 2 mps 735 mmHg 89%
    07:00 -3°C° 0 mm 2 mps 736 mmHg 88%
    08:00 -2°C° 0 mm 2 mps 736 mmHg 86%
    09:00 -1°C° 0 mm 3 mps 736 mmHg 85%
    10:00 0°C° 0 mm 3 mps 736 mmHg 83%
    11:00 +1°C° 0 mm 3 mps 736 mmHg 82%
    12:00 +2°C° 0 mm 3 mps 736 mmHg 80%
    13:00 +1°C° 0 mm 3 mps 736 mmHg 84%
    14:00 +2°C° 0 mm 2 mps 736 mmHg 88%
    15:00 +2°C° 0 mm 2 mps 736 mmHg 93%
    16:00 +2°C° 0.4 mm 2 mps 736 mmHg 94%
    17:00 +1°C° 0.4 mm 2 mps 736 mmHg 95%
    18:00 +1°C° 0.4 mm 2 mps 736 mmHg 97%
    19:00 +1°C° 0.8 mm 2 mps 736 mmHg 97%
    20:00 +2°C° 0.8 mm 1 mps 736 mmHg 97%
    21:00 +2°C° 0.8 mm 1 mps 736 mmHg 98%
    22:00 +2°C° 0.3 mm 1 mps 736 mmHg 98%
    23:00 +1°C° 0.3 mm 2 mps 736 mmHg 98%

    14 December, Friday

    Time Temperature Precipitation Wind Pressure Humidity
    00:00 +1°C° 0.3 mm 2 mps 737 mmHg 97%
    01:00 0°C° 0.2 mm 3 mps 737 mmHg 97%
    02:00 0°C° 0.2 mm 3 mps 737 mmHg 96%
    03:00 -1°C° 0.2 mm 3 mps 737 mmHg 95%
    04:00 -1°C° 0.1 mm 3 mps 737 mmHg 94%
    05:00 -1°C° 0.1 mm 3 mps 738 mmHg 93%
    06:00 -2°C° 0.1 mm 3 mps 738 mmHg 92%
    07:00 -2°C° 0 mm 3 mps 739 mmHg 89%
    08:00 -2°C° 0 mm 3 mps 739 mmHg 85%
    09:00 -2°C° 0 mm 3 mps 739 mmHg 82%
    10:00 -1°C° 0 mm 3 mps 739 mmHg 78%
    11:00 0°C° 0 mm 3 mps 739 mmHg 73%
    12:00 +2°C° 0 mm 2 mps 739 mmHg 69%
    13:00 +2°C° 0 mm 2 mps 739 mmHg 70%
    14:00 +2°C° 0 mm 2 mps 739 mmHg 71%
    15:00 +3°C° 0 mm 1 mps 739 mmHg 72%
    16:00 +1°C° 0 mm 2 mps 739 mmHg 73%
    17:00 -1°C° 0 mm 2 mps 739 mmHg 74%
    18:00 -2°C° 0 mm 2 mps 739 mmHg 75%
    19:00 -2°C° 0 mm 2 mps 739 mmHg 74%
    20:00 -2°C° 0 mm 2 mps 739 mmHg 72%
    21:00 0°C° 0 mm 1 mps 739 mmHg 71%
    22:00 0°C° 0 mm 1 mps 739 mmHg 70%
    23:00 0°C° 0 mm 1 mps 739 mmHg 69%

    15 December, Saturday

    Time Temperature Precipitation Wind Pressure Humidity
    00:00 0°C° 0 mm 1 mps 739 mmHg 68%
    01:00 -2°C° 0 mm 2 mps 739 mmHg 68%
    02:00 -2°C° 0 mm 2 mps 739 mmHg 68%
    03:00 -2°C° 0 mm 2 mps 739 mmHg 68%
    04:00 -2°C° 0 mm 2 mps 739 mmHg 69%
    05:00 -2°C° 0 mm 2 mps 739 mmHg 69%
    06:00 -2°C° 0 mm 2 mps 739 mmHg 70%
    07:00 -1°C° 0 mm 2 mps 739 mmHg 70%
    08:00 -1°C° 0 mm 2 mps 740 mmHg 69%
    09:00 +1°C° 0 mm 2 mps 740 mmHg 69%
    10:00 +3°C° 0 mm 1 mps 740 mmHg 66%
    11:00 +4°C° 0 mm 1 mps 739 mmHg 64%
    12:00 +5°C° 0 mm 1 mps 739 mmHg 61%
    13:00 +5°C° 0 mm 1 mps 739 mmHg 64%
    14:00 +4°C° 0 mm 1 mps 739 mmHg 68%
    15:00 +4°C° 0 mm 1 mps 738 mmHg 71%
    16:00 +3°C° 0 mm 1 mps 739 mmHg 72%
    17:00 +3°C° 0 mm 1 mps 739 mmHg 73%
    18:00 +1°C° 0 mm 0 mps 739 mmHg 74%
    19:00 +2°C° 0 mm 1 mps 739 mmHg 72%
    20:00 +2°C° 0 mm 1 mps 739 mmHg 71%
    21:00 +2°C° 0 mm 1 mps 739 mmHg 70%
    22:00 +1°C° 0 mm 2 mps 739 mmHg 69%
    23:00 +1°C° 0 mm 2 mps 738 mmHg 68%

    16 December, Sunday

    Time Temperature Precipitation Wind Pressure Humidity
    00:00 +1°C° 0 mm 2 mps 738 mmHg 67%
    01:00 0°C° 0 mm 3 mps 738 mmHg 67%
    02:00 0°C° 0 mm 3 mps 738 mmHg 68%
    03:00 0°C° 0 mm 3 mps 738 mmHg 68%
    04:00 -1°C° 0 mm 3 mps 737 mmHg 70%
    05:00 -1°C° 0 mm 3 mps 737 mmHg 71%
    06:00 -1°C° 0 mm 3 mps 737 mmHg 73%
    07:00 -1°C° 0 mm 3 mps 737 mmHg 75%
    08:00 -2°C° 0 mm 4 mps 738 mmHg 77%
    09:00 -1°C° 0 mm 4 mps 738 mmHg 80%
    10:00 0°C° 0 mm 4 mps 738 mmHg 74%
    11:00 +1°C° 0 mm 5 mps 738 mmHg 69%
    12:00 +1°C° 0 mm 5 mps 737 mmHg 64%
    13:00 +1°C° 0 mm 5 mps 737 mmHg 63%
    14:00 +1°C° 0 mm 5 mps 737 mmHg 63%
    15:00 0°C° 0 mm 5 mps 737 mmHg 62%
    16:00 -1°C° 0 mm 5 mps 738 mmHg 65%
    17:00 -3°C° 0 mm 6 mps 738 mmHg 68%
    18:00 -4°C° 0 mm 6 mps 738 mmHg 72%
    19:00 -4°C° 0 mm 6 mps 738 mmHg 73%
    20:00 -4°C° 0 mm 6 mps 739 mmHg 74%
    21:00 -5°C° 0 mm 6 mps 739 mmHg 75%
    22:00 -5°C° 0 mm 6 mps 739 mmHg 73%
    23:00 -5°C° 0 mm 6 mps 739 mmHg 72%
    Show more